ART6154 ESGG-EDDK

Flight info

Callsign ART6154
Flight time 1h 20m
Altitude 38000
Route VADIN DCT LAPMA DCT RAXLU DCT KEGAB DCT ROBEG DCT PIROT DCT LARBU DCT PODER Z189 RUNER T858 KOPAG KOPAG1F
Aircraft A20N/M-SDE2E3FGHIRWXY/LB1

Departure

Time 2026-05-04 18:31
Airport Göteborg Landvetter Airport (ESGG)

Arrival

Time 2026-05-04 19:51
Airport Cologne Bonn Airport (EDDK)
Time Latitude Longitude Altitude Speed Heading
2026-05-04 17:51 57.66848 12.29386 513 ft 0 kts 115°
2026-05-04 18:20 57.66850 12.29377 514 ft 2 kts 115°
2026-05-04 18:21 57.66856 12.29352 513 ft 2 kts 115°
2026-05-04 18:21 57.66863 12.29326 513 ft 2 kts 115°
2026-05-04 18:21 57.66869 12.29302 513 ft 2 kts 115°
2026-05-04 18:21 57.66875 12.29279 513 ft 0 kts 115°
2026-05-04 18:22 57.66878 12.29266 513 ft 1 kts 77°
2026-05-04 18:22 57.66873 12.29251 513 ft 1 kts 28°
2026-05-04 18:22 57.66867 12.29247 513 ft 0 kts 26°
2026-05-04 18:22 57.66866 12.29246 513 ft 0 kts 26°
2026-05-04 18:25 57.66867 12.29247 513 ft 0 kts 26°
2026-05-04 18:25 57.66884 12.29262 513 ft 4 kts 26°
2026-05-04 18:26 57.66919 12.29295 513 ft 7 kts 26°
2026-05-04 18:26 57.66965 12.29329 513 ft 6 kts 355°
2026-05-04 18:26 57.66996 12.29251 512 ft 8 kts 292°
2026-05-04 18:26 57.67043 12.29190 512 ft 9 kts 10°
2026-05-04 18:27 57.67106 12.29243 512 ft 10 kts 26°
2026-05-04 18:27 57.67178 12.29309 513 ft 11 kts 25°
2026-05-04 18:27 57.67254 12.29377 513 ft 12 kts 26°
2026-05-04 18:27 57.67334 12.29451 513 ft 13 kts 27°
2026-05-04 18:28 57.67419 12.29449 513 ft 13 kts 312°
2026-05-04 18:28 57.67456 12.29282 512 ft 14 kts 281°
2026-05-04 18:28 57.67446 12.29096 512 ft 14 kts 250°
2026-05-04 18:28 57.67373 12.28971 512 ft 10 kts 205°
2026-05-04 18:29 57.67360 12.28960 512 ft 0 kts 205°
2026-05-04 18:29 57.67358 12.28958 512 ft 0 kts 205°
2026-05-04 18:30 57.67283 12.28890 512 ft 44 kts 206°
2026-05-04 18:30 57.66774 12.28425 510 ft 116 kts 206°
2026-05-04 18:30 57.65863 12.27583 624 ft 162 kts 209°
2026-05-04 18:31 57.64858 12.26648 1345 ft 162 kts 211°
2026-05-04 18:31 57.63839 12.25738 2028 ft 171 kts 212°
2026-05-04 18:31 57.62729 12.24737 2539 ft 187 kts 213°
2026-05-04 18:31 57.61494 12.23629 2945 ft 211 kts 209°
2026-05-04 18:32 57.60010 12.22753 3471 ft 235 kts 196°
2026-05-04 18:32 57.58315 12.22492 4026 ft 258 kts 186°
2026-05-04 18:32 57.56463 12.22509 4718 ft 271 kts 185°
2026-05-04 18:32 57.54592 12.22364 5655 ft 271 kts 191°
2026-05-04 18:33 57.52717 12.22018 6638 ft 272 kts 192°
2026-05-04 18:33 57.50844 12.21647 7535 ft 275 kts 192°
2026-05-04 18:33 57.48880 12.21242 8444 ft 279 kts 192°
2026-05-04 18:33 57.46933 12.20612 9349 ft 276 kts 204°
2026-05-04 18:34 57.45181 12.19341 10209 ft 275 kts 210°
2026-05-04 18:34 57.43377 12.17849 10785 ft 289 kts 210°
2026-05-04 18:34 57.41501 12.16307 11288 ft 304 kts 209°
2026-05-04 18:34 57.39540 12.14750 12038 ft 309 kts 209°
2026-05-04 18:35 57.37541 12.13202 12885 ft 311 kts 209°
2026-05-04 18:35 57.35522 12.11658 13700 ft 313 kts 209°
2026-05-04 18:35 57.33440 12.10078 14496 ft 316 kts 209°
2026-05-04 18:35 57.31388 12.08528 15226 ft 320 kts 209°
2026-05-04 18:36 57.29326 12.06974 15915 ft 324 kts 209°
2026-05-04 18:36 57.27260 12.05423 16585 ft 328 kts 209°
2026-05-04 18:36 57.25143 12.03836 17249 ft 332 kts 209°
2026-05-04 18:36 57.22997 12.02231 17893 ft 336 kts 209°
2026-05-04 18:37 57.20832 12.00615 18516 ft 339 kts 209°
2026-05-04 18:37 57.18644 11.98984 19130 ft 343 kts 209°
2026-05-04 18:37 57.16424 11.97331 19743 ft 346 kts 208°
2026-05-04 18:37 57.14188 11.95669 20356 ft 349 kts 208°
2026-05-04 18:38 57.11957 11.94014 20948 ft 352 kts 208°
2026-05-04 18:38 57.09665 11.92315 21542 ft 355 kts 208°
2026-05-04 18:38 57.07367 11.90615 22103 ft 359 kts 208°
2026-05-04 18:38 57.05070 11.88917 22659 ft 362 kts 208°
2026-05-04 18:39 57.02744 11.87200 23219 ft 364 kts 207°
2026-05-04 18:39 57.00385 11.85460 23496 ft 365 kts 207°
2026-05-04 18:39 56.98018 11.83719 23753 ft 366 kts 207°
2026-05-04 18:39 56.95661 11.81988 23871 ft 367 kts 207°
2026-05-04 18:40 56.93322 11.80274 23877 ft 366 kts 207°
2026-05-04 18:40 56.90944 11.78534 23895 ft 368 kts 207°
2026-05-04 18:40 56.88539 11.76773 24215 ft 373 kts 207°
2026-05-04 18:40 56.86126 11.75010 24853 ft 374 kts 207°
2026-05-04 18:41 56.83728 11.73259 25411 ft 376 kts 207°
2026-05-04 18:41 56.81297 11.71487 25917 ft 379 kts 207°
2026-05-04 18:41 56.78872 11.69721 26409 ft 382 kts 207°
2026-05-04 18:41 56.76413 11.67934 26883 ft 385 kts 207°
2026-05-04 18:42 56.73922 11.66125 27345 ft 388 kts 207°
2026-05-04 18:42 56.71402 11.64299 27788 ft 391 kts 207°
2026-05-04 18:42 56.68891 11.62482 28199 ft 394 kts 206°
2026-05-04 18:42 56.66340 11.60637 28590 ft 397 kts 206°
2026-05-04 18:43 56.63761 11.58778 28977 ft 400 kts 206°
2026-05-04 18:43 56.61170 11.56911 29352 ft 402 kts 206°
2026-05-04 18:43 56.58600 11.55063 29707 ft 405 kts 206°
2026-05-04 18:43 56.55957 11.53168 30058 ft 407 kts 206°
2026-05-04 18:44 56.53348 11.51297 30385 ft 409 kts 206°
2026-05-04 18:44 56.51598 11.50043 30591 ft 411 kts 206°
2026-05-04 18:44 56.48045 11.47503 30979 ft 413 kts 206°
2026-05-04 18:44 56.45369 11.45593 31317 ft 414 kts 206°
2026-05-04 18:45 56.42729 11.43713 31694 ft 413 kts 206°
2026-05-04 18:45 56.40057 11.41813 32071 ft 413 kts 206°
2026-05-04 18:45 56.37383 11.39914 32417 ft 412 kts 206°
2026-05-04 18:45 56.34736 11.38036 32755 ft 412 kts 206°
2026-05-04 18:46 56.32058 11.36139 33082 ft 412 kts 206°
2026-05-04 18:46 56.29414 11.34267 33409 ft 412 kts 205°
2026-05-04 18:46 56.26805 11.32426 33739 ft 412 kts 205°
2026-05-04 18:46 56.24188 11.30579 34051 ft 412 kts 205°
2026-05-04 18:47 56.21561 11.28730 34377 ft 411 kts 205°
2026-05-04 18:47 56.18890 11.26852 34715 ft 411 kts 205°
2026-05-04 18:47 56.16225 11.24979 34960 ft 410 kts 205°
2026-05-04 18:47 56.13705 11.23212 35182 ft 410 kts 205°
2026-05-04 18:48 56.10981 11.21306 35404 ft 410 kts 205°
2026-05-04 18:48 56.08359 11.19474 35610 ft 409 kts 205°
2026-05-04 18:48 56.05721 11.17633 35835 ft 409 kts 205°
2026-05-04 18:48 56.03081 11.15794 36010 ft 408 kts 205°
2026-05-04 18:49 56.00442 11.13955 36177 ft 408 kts 205°
2026-05-04 18:49 55.97785 11.12107 36312 ft 409 kts 205°
2026-05-04 18:49 55.95139 11.10270 36488 ft 409 kts 205°
2026-05-04 18:49 55.92495 11.08436 36658 ft 410 kts 205°
2026-05-04 18:50 55.89851 11.06607 36834 ft 411 kts 205°
2026-05-04 18:50 55.87192 11.04771 37009 ft 411 kts 205°
2026-05-04 18:50 55.84557 11.02952 37188 ft 412 kts 205°
2026-05-04 18:50 55.81881 11.01111 37353 ft 412 kts 205°
2026-05-04 18:51 55.79202 10.99268 37500 ft 413 kts 205°
2026-05-04 18:51 55.76533 10.97433 37642 ft 414 kts 205°
2026-05-04 18:51 55.73856 10.95597 37783 ft 415 kts 205°
2026-05-04 18:51 55.71178 10.93764 37913 ft 415 kts 205°
2026-05-04 18:52 55.68467 10.91909 37921 ft 416 kts 205°
2026-05-04 18:52 55.63086 10.88237 37927 ft 416 kts 205°
2026-05-04 18:53 55.57722 10.84588 37928 ft 416 kts 205°
2026-05-04 18:53 55.52336 10.80935 37926 ft 416 kts 205°
2026-05-04 18:54 55.46936 10.77283 37927 ft 415 kts 205°
2026-05-04 18:54 55.41592 10.73677 37928 ft 415 kts 205°
2026-05-04 18:55 55.36201 10.70053 37928 ft 415 kts 205°
2026-05-04 18:55 55.28108 10.64632 37931 ft 415 kts 205°
2026-05-04 18:56 55.22732 10.61044 37931 ft 415 kts 205°
2026-05-04 18:56 55.17351 10.57464 37934 ft 414 kts 205°
2026-05-04 18:57 55.11979 10.53898 37937 ft 414 kts 205°
2026-05-04 18:57 55.06611 10.50345 37939 ft 415 kts 205°
2026-05-04 18:58 55.01236 10.46799 37942 ft 414 kts 205°
2026-05-04 18:58 54.95842 10.43246 37951 ft 415 kts 205°
2026-05-04 18:59 54.90475 10.39728 37965 ft 414 kts 205°
2026-05-04 18:59 54.85066 10.36190 37963 ft 414 kts 205°
2026-05-04 19:00 54.79703 10.32693 37956 ft 413 kts 204°
2026-05-04 19:00 54.74347 10.29209 37955 ft 414 kts 204°
2026-05-04 19:01 54.68877 10.26080 37963 ft 416 kts 199°
2026-05-04 19:01 54.63317 10.23345 37957 ft 416 kts 200°
2026-05-04 19:02 54.57769 10.20609 37952 ft 416 kts 200°
2026-05-04 19:02 54.52210 10.17881 37958 ft 416 kts 199°
2026-05-04 19:03 54.46707 10.15190 37967 ft 415 kts 199°
2026-05-04 19:03 54.41135 10.12475 37967 ft 415 kts 199°
2026-05-04 19:04 54.35630 10.09802 37967 ft 415 kts 199°
2026-05-04 19:04 54.30092 10.07121 37957 ft 414 kts 199°
2026-05-04 19:05 54.24562 10.04447 37963 ft 415 kts 199°
2026-05-04 19:05 54.18990 10.01764 37968 ft 415 kts 200°
2026-05-04 19:06 54.13444 9.99099 37952 ft 414 kts 199°
2026-05-04 19:06 54.07929 9.96457 37968 ft 414 kts 199°
2026-05-04 19:07 54.02410 9.93821 37957 ft 414 kts 200°
2026-05-04 19:07 53.96864 9.91179 37954 ft 414 kts 200°
2026-05-04 19:08 53.91332 9.88552 37958 ft 414 kts 200°
2026-05-04 19:08 53.85801 9.85931 37959 ft 413 kts 200°
2026-05-04 19:09 53.80294 9.83330 37955 ft 412 kts 200°
2026-05-04 19:09 53.74803 9.80742 37955 ft 412 kts 200°
2026-05-04 19:10 53.69284 9.78149 37951 ft 411 kts 200°
2026-05-04 19:10 53.63792 9.75574 37959 ft 411 kts 200°
2026-05-04 19:11 53.58316 9.73015 37971 ft 411 kts 199°
2026-05-04 19:11 53.52829 9.70455 37966 ft 411 kts 199°
2026-05-04 19:12 53.44557 9.66613 37967 ft 410 kts 200°
2026-05-04 19:13 53.39098 9.64086 37957 ft 409 kts 200°
2026-05-04 19:13 53.33614 9.61554 37943 ft 409 kts 200°
2026-05-04 19:14 53.28140 9.59034 37963 ft 408 kts 200°
2026-05-04 19:14 53.22694 9.56532 37955 ft 408 kts 200°
2026-05-04 19:15 53.17232 9.54032 37958 ft 407 kts 200°
2026-05-04 19:15 53.11807 9.51552 37942 ft 407 kts 200°
2026-05-04 19:16 53.06373 9.49074 37966 ft 407 kts 200°
2026-05-04 19:16 53.00909 9.46593 37965 ft 406 kts 200°
2026-05-04 19:17 52.95467 9.44128 37952 ft 405 kts 200°
2026-05-04 19:17 52.89993 9.42081 37948 ft 408 kts 194°
2026-05-04 19:17 52.87168 9.41402 37666 ft 411 kts 192°
2026-05-04 19:18 52.84352 9.40761 37305 ft 408 kts 193°
2026-05-04 19:18 52.81559 9.40123 36942 ft 406 kts 193°
2026-05-04 19:18 52.78766 9.39483 36609 ft 405 kts 193°
2026-05-04 19:18 52.76015 9.38855 36317 ft 403 kts 193°
2026-05-04 19:19 52.73235 9.38220 36005 ft 402 kts 193°
2026-05-04 19:19 52.70487 9.37595 35688 ft 402 kts 194°
2026-05-04 19:19 52.67715 9.36965 35373 ft 401 kts 194°
2026-05-04 19:19 52.64975 9.36342 35056 ft 400 kts 194°
2026-05-04 19:20 52.62248 9.35724 34697 ft 399 kts 194°
2026-05-04 19:20 52.59485 9.35093 34290 ft 399 kts 194°
2026-05-04 19:20 52.56747 9.34471 33978 ft 399 kts 193°
2026-05-04 19:21 52.51239 9.33225 33955 ft 401 kts 193°
2026-05-04 19:21 52.45723 9.31986 33957 ft 400 kts 193°
2026-05-04 19:22 52.40429 9.30797 33954 ft 400 kts 193°
2026-05-04 19:22 52.34913 9.29562 33949 ft 400 kts 193°
2026-05-04 19:23 52.29436 9.28341 33950 ft 400 kts 193°
2026-05-04 19:23 52.23933 9.27115 33950 ft 401 kts 192°
2026-05-04 19:24 52.18374 9.26049 33947 ft 402 kts 191°
2026-05-04 19:24 52.12820 9.25066 33948 ft 402 kts 191°
2026-05-04 19:25 52.07278 9.24068 33942 ft 402 kts 191°
2026-05-04 19:25 52.01785 9.22770 33939 ft 400 kts 194°
2026-05-04 19:26 51.96279 9.21303 33927 ft 399 kts 196°
2026-05-04 19:26 51.91083 9.18534 33886 ft 393 kts 208°
2026-05-04 19:26 51.88643 9.16466 33146 ft 396 kts 213°
2026-05-04 19:27 51.86372 9.13959 32200 ft 400 kts 219°
2026-05-04 19:27 51.84256 9.11002 31354 ft 402 kts 225°
2026-05-04 19:27 51.82350 9.07713 30595 ft 402 kts 229°
2026-05-04 19:27 51.80528 9.04369 30075 ft 397 kts 229°
2026-05-04 19:28 51.78719 9.01025 29578 ft 392 kts 229°
2026-05-04 19:28 51.76959 8.97766 29092 ft 387 kts 229°
2026-05-04 19:28 51.75212 8.94533 28627 ft 382 kts 229°
2026-05-04 19:28 51.73461 8.91298 28151 ft 378 kts 229°
2026-05-04 19:29 51.71761 8.88156 27689 ft 374 kts 229°
2026-05-04 19:29 51.70068 8.85034 27236 ft 370 kts 229°
2026-05-04 19:29 51.68386 8.81935 26779 ft 366 kts 229°
2026-05-04 19:29 51.66722 8.78877 26337 ft 363 kts 229°
2026-05-04 19:30 51.65064 8.75831 25888 ft 360 kts 229°
2026-05-04 19:30 51.63414 8.72815 25447 ft 357 kts 227°
2026-05-04 19:30 51.61657 8.70061 24960 ft 355 kts 221°
2026-05-04 19:30 51.59709 8.67637 24238 ft 358 kts 215°
2026-05-04 19:31 51.57579 8.65540 23623 ft 358 kts 211°
2026-05-04 19:31 51.55436 8.63596 23105 ft 356 kts 210°
2026-05-04 19:31 51.53279 8.61659 22594 ft 353 kts 210°
2026-05-04 19:31 51.51155 8.59755 22088 ft 351 kts 210°
2026-05-04 19:32 51.49047 8.57865 21583 ft 349 kts 210°
2026-05-04 19:32 51.46923 8.55963 21115 ft 346 kts 210°
2026-05-04 19:32 51.44828 8.54089 20956 ft 346 kts 210°
2026-05-04 19:32 51.42735 8.52218 20950 ft 348 kts 210°
2026-05-04 19:33 51.40624 8.50333 20949 ft 348 kts 210°
2026-05-04 19:33 51.38496 8.48433 20949 ft 349 kts 210°
2026-05-04 19:33 51.36374 8.46586 20943 ft 349 kts 206°
2026-05-04 19:33 51.34055 8.45561 20948 ft 351 kts 188°
2026-05-04 19:34 51.31635 8.45257 20955 ft 351 kts 185°
2026-05-04 19:34 51.29195 8.45096 20950 ft 351 kts 184°
2026-05-04 19:34 51.26746 8.44966 20946 ft 352 kts 184°
2026-05-04 19:34 51.24321 8.44846 20945 ft 351 kts 184°
2026-05-04 19:35 51.21888 8.44728 20946 ft 351 kts 184°
2026-05-04 19:35 51.19433 8.44618 20949 ft 352 kts 184°
2026-05-04 19:35 51.17036 8.44207 20901 ft 347 kts 199°
2026-05-04 19:35 51.14924 8.42405 20366 ft 347 kts 221°
2026-05-04 19:36 51.13392 8.39444 19483 ft 357 kts 240°
2026-05-04 19:36 51.12525 8.35763 18758 ft 363 kts 257°
2026-05-04 19:36 51.12121 8.31823 18245 ft 361 kts 258°
2026-05-04 19:36 51.11726 8.27905 17722 ft 359 kts 258°
2026-05-04 19:37 51.11315 8.23996 17185 ft 357 kts 258°
2026-05-04 19:37 51.10902 8.20169 16690 ft 354 kts 257°
2026-05-04 19:37 51.10482 8.16321 16211 ft 350 kts 257°
2026-05-04 19:37 51.10061 8.12531 15716 ft 348 kts 257°
2026-05-04 19:38 51.09640 8.08765 15205 ft 346 kts 257°
2026-05-04 19:38 51.09216 8.04994 14718 ft 343 kts 258°
2026-05-04 19:38 51.08801 8.01310 14231 ft 340 kts 258°
2026-05-04 19:38 51.08387 7.97636 13740 ft 338 kts 258°
2026-05-04 19:39 51.07969 7.93949 13240 ft 336 kts 258°
2026-05-04 19:39 51.07557 7.90335 12757 ft 333 kts 258°
2026-05-04 19:39 51.07154 7.86780 12438 ft 325 kts 258°
2026-05-04 19:39 51.06699 7.83318 12179 ft 314 kts 250°
2026-05-04 19:40 51.05574 7.80467 11975 ft 305 kts 223°
2026-05-04 19:40 51.03839 7.78648 11956 ft 297 kts 207°
2026-05-04 19:40 51.01979 7.77291 11777 ft 287 kts 204°
2026-05-04 19:40 51.00175 7.76072 11572 ft 278 kts 204°
2026-05-04 19:41 50.98426 7.74904 11251 ft 274 kts 204°
2026-05-04 19:41 50.96653 7.73724 10869 ft 273 kts 204°
2026-05-04 19:41 50.94934 7.72578 10496 ft 271 kts 204°
2026-05-04 19:41 50.93182 7.71413 10105 ft 270 kts 204°
2026-05-04 19:42 50.91471 7.70276 9740 ft 268 kts 204°
2026-05-04 19:42 50.89761 7.69141 9369 ft 266 kts 204°
2026-05-04 19:42 50.88073 7.68024 8958 ft 266 kts 204°
2026-05-04 19:42 50.86334 7.66869 8246 ft 277 kts 204°
2026-05-04 19:43 50.84536 7.65639 7518 ft 287 kts 205°
2026-05-04 19:43 50.82754 7.64205 6880 ft 292 kts 208°
2026-05-04 19:43 50.80989 7.62705 6494 ft 288 kts 208°
2026-05-04 19:43 50.79250 7.61210 6120 ft 284 kts 208°
2026-05-04 19:44 50.77520 7.59720 5664 ft 283 kts 208°
2026-05-04 19:44 50.75806 7.58249 5189 ft 282 kts 209°
2026-05-04 19:44 50.74134 7.56681 4974 ft 272 kts 220°
2026-05-04 19:44 50.73053 7.54386 4969 ft 257 kts 246°
2026-05-04 19:45 50.72499 7.51754 4969 ft 246 kts 252°
2026-05-04 19:45 50.72052 7.49188 4826 ft 242 kts 254°
2026-05-04 19:45 50.71619 7.46616 4293 ft 246 kts 253°
2026-05-04 19:45 50.71199 7.44023 3747 ft 244 kts 260°
2026-05-04 19:46 50.71332 7.41425 3401 ft 234 kts 287°
2026-05-04 19:46 50.71920 7.39088 3155 ft 229 kts 292°
2026-05-04 19:46 50.72583 7.36838 2981 ft 221 kts 295°
2026-05-04 19:46 50.73309 7.34777 2968 ft 208 kts 302°
2026-05-04 19:47 50.74180 7.33052 2956 ft 195 kts 310°
2026-05-04 19:47 50.75112 7.31614 2936 ft 182 kts 315°
2026-05-04 19:47 50.76035 7.30314 2784 ft 176 kts 315°
2026-05-04 19:47 50.76936 7.29042 2553 ft 174 kts 315°
2026-05-04 19:48 50.77832 7.27752 2324 ft 172 kts 315°
2026-05-04 19:48 50.78711 7.26474 2096 ft 170 kts 315°
2026-05-04 19:48 50.79572 7.25218 1935 ft 163 kts 315°
2026-05-04 19:48 50.80385 7.24033 1727 ft 157 kts 315°
2026-05-04 19:49 50.81182 7.22862 1484 ft 156 kts 315°
2026-05-04 19:49 50.81972 7.21684 1263 ft 154 kts 316°
2026-05-04 19:49 50.82757 7.20576 1077 ft 150 kts 318°
2026-05-04 19:49 50.83526 7.19478 855 ft 149 kts 317°
2026-05-04 19:50 50.84279 7.18376 674 ft 150 kts 316°
2026-05-04 19:50 50.85052 7.17246 474 ft 148 kts 317°
2026-05-04 19:50 50.85797 7.16163 310 ft 140 kts 317°
2026-05-04 19:50 50.86447 7.15225 282 ft 108 kts 317°
2026-05-04 19:51 50.86943 7.14508 262 ft 86 kts 317°
2026-05-04 19:51 50.87344 7.13928 246 ft 71 kts 317°
2026-05-04 19:51 50.87667 7.13460 239 ft 51 kts 319°
2026-05-04 19:51 50.87882 7.13144 236 ft 32 kts 317°
2026-05-04 19:52 50.87984 7.12987 234 ft 13 kts 304°
2026-05-04 19:52 50.88009 7.12836 233 ft 15 kts 266°
2026-05-04 19:52 50.87978 7.12672 231 ft 13 kts 270°
2026-05-04 19:52 50.88011 7.12592 230 ft 9 kts 324°
2026-05-04 19:53 50.88068 7.12528 229 ft 11 kts 320°
2026-05-04 19:53 50.88129 7.12429 227 ft 13 kts 310°
2026-05-04 19:53 50.88154 7.12282 225 ft 15 kts 272°
2026-05-04 19:53 50.88192 7.12169 224 ft 4 kts 318°
2026-05-04 19:54 50.88227 7.12178 224 ft 6 kts 36°
2026-05-04 19:54 50.88250 7.12204 224 ft 0 kts 37°